User: anonymous   Login
Location: Slidell
(30.2789°N, 89.7378°W)
Time: 06:58:26
(UTC-05:00)
Language:

Cosmos 2360 Rocket - Orbit

View from above orbital plane
View from above orbital plane
View from above satellite
View from above satellite

Ground track
Ground track

The orbit data is extracted from the following two-line orbital elements,

1 25407U 98045B   17233.15311201 -.00000217  00000-0 -86003-4 0  9997
2 25407  71.0097 264.9094 0005594 115.1478 245.0226 14.15761868985378
Epoch (UTC): 21 August 2017 03:40:28
Eccentricity: 0.0005594
inclination: 71.0097°
perigee height: 835 km
apogee height: 844 km
right ascension of ascending node: 264.9094°
argument of perigee: 115.1478°
revolutions per day: 14.15761868
mean anomaly at epoch: 245.0226°
orbit number at epoch: 98537

The dashed part of the orbit path shows where the satellite is in the earth's shadow,  

DLR